Flag for Poland Weather past 2 weeks in Warsaw, Poland

Now
70 °F

Scattered clouds.


Feels Like: 70 °F
Forecast: 54 / 72 °F
Wind: 13 mph from West

Location: Warsaw Okecie Airport

Current Time: Aug 30, 2014 at 1:19:53 PM

Latest Report: Aug 30, 2014 at 1:00 PM


Visibility: N/A

Pressure: 30.01 "Hg

Humidity: 60%

Dew point: 55 °F

Location of WarsawLocation

Historic Weather in Warsaw — Graph

°F

Warsaw temperature yesterday

Maximum temperature yesterday: 72 °F (at 12:30 PM)
Minimum temperature yesterday: 48 °F (at 2:30 AM)
Average temperature yesterday: 61 °F

Past Weeks' High & Low Weather Summary

 TemperatureHumidityPressure
High73 °F (Aug 15, 2:30 PM)100% (Aug 20, 1:00 AM)30.07 "Hg (Aug 20, 1:00 AM)
Low43 °F (Aug 27, 5:00 AM)33% (Aug 23, 2:00 PM)29.71 "Hg (Aug 18, 6:30 PM)
Average59 °F77%29.91 "Hg
* Reported Aug 15 12:00 Noon — Aug 30 12:00 Noon, Warsaw, Weather by CustomWeather, © 2014

Note: Actual official high and low records may vary slightly from our data, if they occured in-between our weather recording intervals... More about our weather records

Advertising

Warsaw weather history for previous 24 hours

 ConditionsComfort  
Time TempWeatherWind HumidityBarometerVisibility
12:00 PM
Aug 30
70 °FScattered clouds.12 mph64%30.01 "HgN/A
11:30 AM68 °FPartly sunny.9 mph73%30.01 "HgN/A
11:00 AM66 °FPartly sunny.9 mph78%30.01 "HgN/A
10:30 AM66 °FScattered clouds.9 mph78%30.01 "HgN/A
10:00 AM64 °FPassing clouds.8 mph83%30.01 "HgN/A
9:30 AM64 °FPassing clouds.8 mph83%30.01 "HgN/A
9:00 AM63 °FSunny.7 mph88%30.01 "Hg10 mi
8:30 AM61 °FPassing clouds.8 mph94%30.01 "HgN/A
8:00 AM61 °FPartly sunny.2 mph94%29.98 "HgN/A
7:30 AM59 °FPartly sunny.2 mph94%29.98 "HgN/A
7:00 AM59 °FScattered clouds.2 mph94%29.98 "HgN/A
6:30 AM57 °FPassing clouds.5 mph94%29.98 "HgN/A
6:00 AM57 °FSprinkles. Passing clouds.5 mph94%29.98 "HgN/A
5:30 AM59 °FLight rain. Clear.3 mph88%29.98 "HgN/A
5:00 AM59 °FClear.6 mph82%29.98 "Hg10 mi
4:30 AM59 °FClear.5 mph82%29.98 "Hg10 mi
4:00 AM59 °FClear.3 mph82%29.98 "Hg10 mi
3:30 AM57 °FClear.3 mph88%29.98 "Hg10 mi
3:00 AM57 °FClear.3 mph88%29.98 "Hg10 mi
2:30 AM57 °FClear.3 mph88%29.98 "Hg10 mi
2:00 AM59 °FClear.3 mph82%29.98 "Hg10 mi
1:30 AM59 °FClear.5 mph77%29.98 "Hg10 mi
1:00 AM61 °FClear.5 mph72%29.98 "Hg10 mi
12:30 AM61 °FClear.7 mph72%29.98 "Hg10 mi
12:00 AM61 °FClear.6 mph72%29.98 "Hg10 mi
11:30 PM
Aug 29
59 °FClear.7 mph77%29.98 "Hg10 mi
11:00 PM59 °FClear.7 mph82%30.01 "Hg10 mi
9:00 PM61 °FClear.6 mph77%30.01 "Hg10 mi
8:30 PM61 °FSunny.8 mph77%30.01 "Hg10 mi
8:00 PM63 °FSunny.5 mph68%30.01 "Hg10 mi
7:30 PM64 °FSunny.6 mph68%30.01 "Hg10 mi
7:00 PM66 °FSunny.6 mph60%30.01 "Hg10 mi
6:30 PM66 °FSunny.5 mph64%30.01 "Hg10 mi
6:00 PM68 °FSunny.3 mph60%30.01 "Hg10 mi
5:30 PM70 °FSunny.5 mph50%30.01 "Hg10 mi
5:00 PM70 °FSunny.6 mph43%30.01 "Hg10 mi
4:30 PM72 °FPassing clouds.6 mph38%30.01 "HgN/A
4:00 PM72 °FSunny.7 mph38%30.01 "Hg10 mi
3:30 PM72 °FPassing clouds.7 mph41%30.01 "HgN/A
3:00 PM72 °FPassing clouds.6 mph38%30.01 "HgN/A
2:30 PM72 °FPassing clouds.9 mph38%30.04 "HgN/A
2:00 PM72 °FSunny.7 mph41%30.04 "Hg10 mi
1:30 PM72 °FPassing clouds.8 mph41%30.04 "HgN/A
1:00 PM70 °FPassing clouds.10 mph43%30.04 "HgN/A
Weather by CustomWeather, © 2014

See weather overviewHow to use our weather pages